Bismarck, ND

8:43 AM CDT on September 28, 2016 (GMT -0500)
Bismarck Municipal

Weather History for KBIS - October, 2011

Change the Weather History Date:

Saturday, October 29, 2011

  Actual Average Record
Temperature  
Mean Temperature 42 °F 39 °F  
Max Temperature 57 °F 50 °F 80 °F (1950)
Min Temperature 26 °F 27 °F -3 °F (1925)
Degree Days  
Heating Degree Days 23 26  
Month to date heating degree days 462 571  
Since 1 July heating degree days 689 857  
Cooling Degree Days 0 0  
Month to date cooling degree days 14 0  
Year to date cooling degree days 425 519  
Moisture  
Dew Point 26 °F    
Average Humidity 59    
Maximum Humidity 85    
Minimum Humidity 32    
Precipitation  
Precipitation 0.06 in 0.03 in 0.57 in (1991)
Month to date precipitation 1.35 1.18  
Year to date precipitation 22.69 16.58  
Snow  
Snow 0.00 in 0.20 in 8.60 in (1991)
Month to date snowfall T 1.9  
Since 1 July snowfall T 2.1  
Since 1 September snowfall T 2.1  
Snow Depth 0.00 in    
Sea Level Pressure  
Sea Level Pressure 29.88 in    
Wind  
Wind Speed 10 mph (South)    
Max Wind Speed 24 mph    
Max Gust Speed 33 mph    
Visibility 10 miles    
Events Rain    
T = Trace of Precipitation, MM = Missing Value Source: NWS Daily Summary

Daily Weather History Graph

Daily Weather History Graph

Search for Another Location

Airport or City:

Trip Planner

Search our weather history database for the weather conditions in past years. The results will help you decide how hot, cold, wet, or windy it might be!

Date:

Astronomy

Oct. 29, 2011 Rise Set
Actual Time 8:20 AM CDT 6:32 PM CDT
Civil Twilight 7:49 AM CDT 7:03 PM CDT
Nautical Twilight 7:13 AM CDT 7:39 PM CDT
Astronomical Twilight 6:38 AM CDT 8:14 PM CDT
Moon 11:56 AM CDT (10/29) 8:45 PM CDT (10/29)
Length of Visible Light 11h 14m
Length of Day
10h 11m
Waxing Crescent, 12% of the Moon is Illuminated
Oct 29
Waxing Crescent
Nov 2
First Quarter
Nov 10
Full
Nov 18
Last Quarter
Nov 25
New

Hourly Weather History & Observations

Time (CDT) Temp. Windchill Dew Point Humidity Pressure Visibility Wind Dir Wind Speed Gust Speed Precip Events Conditions
12:52 AM 28.4 °F 24.6 °F 21.2 °F 74% 30.00 in 10.0 mi ENE 3.5 mph - N/A   Clear
1:52 AM 27.0 °F 21.6 °F 21.9 °F 81% 30.03 in 10.0 mi ESE 4.6 mph - N/A   Clear
2:52 AM 28.0 °F 21.7 °F 24.1 °F 85% 30.00 in 10.0 mi ESE 5.8 mph - N/A   Clear
3:52 AM 28.9 °F 23.9 °F 23.0 °F 78% 29.97 in 10.0 mi SE 4.6 mph - N/A   Clear
4:52 AM 32.0 °F 24.2 °F 25.0 °F 75% 29.94 in 10.0 mi ESE 9.2 mph - N/A   Clear
5:52 AM 33.1 °F 28.7 °F 26.1 °F 75% 29.91 in 10.0 mi ESE 4.6 mph - N/A   Clear
6:52 AM 35.1 °F 28.6 °F 26.1 °F 70% 29.91 in 10.0 mi SSE 8.1 mph - N/A   Mostly Cloudy
7:52 AM 36.0 °F 30.3 °F 24.1 °F 62% 29.89 in 10.0 mi SE 6.9 mph - N/A   Mostly Cloudy
8:52 AM 37.9 °F 31.5 °F 24.1 °F 57% 29.88 in 10.0 mi SE 9.2 mph - N/A   Mostly Cloudy
9:52 AM 39.0 °F 31.8 °F 24.1 °F 55% 29.85 in 10.0 mi SSE 11.5 mph - N/A   Partly Cloudy
10:52 AM 42.1 °F 37.1 °F 25.0 °F 51% 29.84 in 10.0 mi SSE 8.1 mph - N/A   Overcast
11:52 AM 44.1 °F 37.7 °F 24.1 °F 45% 29.82 in 10.0 mi South 12.7 mph - N/A   Scattered Clouds
12:52 PM 48.0 °F - 26.1 °F 42% 29.81 in 10.0 mi SSW 9.2 mph - N/A   Overcast
1:52 PM 50.0 °F - 27.0 °F 41% 29.80 in 10.0 mi South 8.1 mph - N/A   Overcast
2:52 PM 51.1 °F - 26.1 °F 38% 29.78 in 10.0 mi SW 10.4 mph - N/A   Mostly Cloudy
3:52 PM 55.9 °F - 27.0 °F 33% 29.76 in 10.0 mi SW 3.5 mph - N/A   Partly Cloudy
4:52 PM 55.0 °F - 28.0 °F 35% 29.76 in 10.0 mi South 3.5 mph - N/A   Mostly Cloudy
5:52 PM 52.0 °F - 32.0 °F 47% 29.79 in 5.0 mi WNW 9.2 mph - 0.00 in Rain Light Rain
6:52 PM 50.0 °F - 37.0 °F 61% 29.83 in 10.0 mi NNW 18.4 mph 29.9 mph 0.05 in   Overcast
7:52 PM 46.0 °F 40.2 °F - N/A% 29.87 in 10.0 mi WNW 12.7 mph 21.9 mph N/A   Overcast
8:52 PM 45.0 °F 37.6 °F - N/A% 29.87 in 10.0 mi West 17.3 mph - 0.00 in   Overcast
9:52 PM 44.1 °F 35.9 °F - N/A% 29.89 in 10.0 mi NW 19.6 mph 29.9 mph N/A   Overcast
10:52 PM 44.1 °F 37.7 °F - N/A% 29.91 in 10.0 mi NW 12.7 mph 24.2 mph 0.00 in   Overcast
11:52 PM 42.1 °F 36.6 °F - N/A% 29.92 in 10.0 mi WNW 9.2 mph - 0.01 in   Mostly Cloudy